{"data":{"norad_id":40339,"epoch":"2026-05-25T03:41:56.859648Z","epoch_age_seconds":61411,"freshness":"FRESH","line1":"1 40339U 14080B   26145.15413032 -.00000193  00000+0 -11489-3 0  9999","line2":"2 40339  63.3904  10.2537 0364890   8.8561 351.8673 13.45432652562531","mean_motion":13.45432652,"eccentricity":0.036489,"inclination_deg":63.3904,"raan_deg":10.2537,"arg_perigee_deg":8.8561,"mean_anomaly_deg":351.8673,"bstar":-0.00011489,"rev_number":56253,"period_min":107.02876861651,"perigee_km":816.63787952532,"apogee_km":1361.5826504288,"semimajor_km":7467.2472649771,"source":"CELESTRAK","updated_at":"2026-05-25T13:37:55.516848Z"}}